sat.trackr.live / text

‹ back to catalog

NIMIQ 6

NORAD 38342 · 2012-026A

PAYLOAD ACTIVE UNKNOWN

§ Identity

Operator
Country
CA
Launch date
2012-05-17
Launch site
TYMSC
Launch vehicle
Mass (kg)
RCS (m²)
14.09

Purposes: comms

External: N2YO · Heavens-Above · Gunter

§ Orbital elements

Epoch: 2026-05-25T04:28:19.027776Z

Period
1,436.10 min
Inclination
0.0368°
Eccentricity
0.0002734
Mean motion
1.00271548 rev/d
Perigee alt
35,775.1 km
Apogee alt
35,798.2 km
Semi-major
42,164.8 km
B*
0.0000e+0
RAAN
80.4224°
Arg perigee
340.9225°
Mean anomaly
157.4090°
Rev number
5,018

§ Raw data

NIMIQ 61 38342U 12026A   26145.18633134 -.00000176  00000+0  00000+0 0  99912 38342   0.0368  80.4224 0002734 340.9225 157.4090  1.00271548 50188

JSON: /api/v1/satellites/38342 · /tle

For live sub-satellite position, see the globe view (requires WebGL).

§ Visibility from observer

Set your observer location to see the next 7 days of passes ≥ 10°. The values pass through the URL so the page stays shareable.

No JS? Fill the form by hand. The geolocation button needs JavaScript.